Volver al catálogo

STARLINK-37298

ActivoComunicacionesSSO
NORAD 68670·PAYLOAD·🇺🇸 United States

Lanzado Apr 11, 2026 desde Vandenberg Space Force Base

Loading…

Próximos Pases (próximas 24 horas)

TLE

ActualizadoSource: CelesTrak SupGP

Época: Sep 14, 2026, 23:05 UTC

1 68670C 26077J   26257.96229167  .00068869  00000+0  21365-2 0  2575
2 68670  97.2846 127.9039 0002001  91.7555 216.7653 15.33424198    12

Sigue STARLINK-37298 en tiempo real con AllMySat

Download on the App Store